User: anonymous   Login
Location: Unspecified
(38.7273°N, 77.0677°W)
Time: 20:40:33
(UTC-04:00)
Language:

Hubble Space Telescope - Orbit

View from above orbital plane
View from above orbital plane
View from above satellite
View from above satellite

Ground track
Ground track

The orbit data is extracted from the following two-line orbital elements,

1 20580U 90037B   21217.38342205  .00000537  00000-0  21468-4 0  9994
2 20580  28.4699 101.3108 0002592 227.2076 295.8325 15.09697538518419
Epoch (UTC): 05 August 2021 09:12:07
Eccentricity: 0.0002592
inclination: 28.4699°
perigee height: 535 km
apogee height: 539 km
right ascension of ascending node: 101.3108°
argument of perigee: 227.2076°
revolutions per day: 15.09697538
mean anomaly at epoch: 295.8325°
orbit number at epoch: 51841

The dashed part of the orbit path shows where the satellite is in the earth's shadow,  

DLR